www.pogodaiklimat.ru

Погода и климат >> Архив погоды >> Канада >> Grand Etang


ПОГОДА в Grand Etang

  • Прогноз погоды в Grand Etang
  • Монитор погоды в Grand Etang
  • Климат города

АРХИВ ПОГОДЫ в Grand Etang

Время (UTC), дата Ветер
(напр.,м/с)
 
Видим.   Явления Облачность Т
(С)
Тd
(С)
f
(%)
Тe
(С)
Тes
(С)
Комфортность P
(гПа)
Po
(гПа)
Тmin
(С)
Tmax
(С)
R
(мм)
R24
(мм)
S
(см)
00 18.05 СЗ 9 12 км слаб. снег 10/10 300 м
[]
-10.6 -12.8 84 -21 -21 1018.5 1012.2 -10.6 -8.6
03 18.05 СЗ 7 16 км слаб. снег 10/10 300 м
[]
-11.4 -13.2 86 -21 -21 1018.4 1012.1
06 18.05 СЗ 8 16 км слаб. снег 10/10 300 м
[]
-10.8 -12.4 88 -21 -21 1018.5 1012.2 -11.5 -8.6 181
09 18.05 СЗ 7 11 км слаб. снег 10/10 300 м
[]
-10.5 -11.7 91 -20 -20 1018.5 1012.2
12 18.05 З 7 16 км слаб. снег 10/10 300 м
[]
-11.0 -12.6 88 -20 -20 1018.6 1012.3 -11.5 -8.6
15 18.05 З 8 9000 м слаб. снег 10/10 200 м
[]
-9.7 -11.3 88 -20 -20 1017.6 1011.3
18 18.05 З 7 16 км слаб. снег 10/10 300 м
[]
-9.9 -12.0 85 -19 -19 1016.6 1010.3 -12.1 -9.6
21 18.05 З 5 16 км слаб. снег 5/5 200 м
[]
-10.4 -12.2 87 -18 -17 1015.7 1009.4
00 19.05 З 4 16 км ясно -10.6 -12.1 89 -18 -18 1014.5 1008.2 -12.1 -9.6
03 19.05 СЗ 3 16 км слаб. снег 10/10 200 м
[]
-11.0 -12.1 92 -17 -17 1013.7 1007.4
06 19.05 С 4 16 км слаб. снег 10/10 200 м
[]
-10.8 -11.7 93 -17 -17 1012.8 1006.5 -12.1 -9.6 71
09 19.05 С 5 14 км слаб. снег 10/10 300 м
[]
-11.0 -12.3 90 -19 -19 1012.8 1006.5
12 19.05 СЗ 5 16 км слаб. снег 10/10 300 м
[]
-10.5 -12.6 85 -18 -18 1012.8 1006.5 -11.6 -9.6
15 19.05 СЗ 9 9000 м слаб. снег ясно -9.7 -11.5 87 -20 -18 1012.4 1006.2
18 19.05 СЗ 10 6000 м слаб. снег 10/10 300 м
[]
-8.8 -10.7 86 -19 -19 1012.4 1006.2 -11.6 -8.8
21 19.05 СЗ 10 8000 м слаб. снег 10/10 300 м
[]
-7.9 -9.7 87 -18 -18 1012.5 1006.3
00 20.05 СЗ 9 9000 м слаб. снег 10/10 300 м
[]
-8.2 -9.4 91 -18 -18 1012.3 1006.1 -11.6 -7.7
03 20.05 СЗ 9 11 км слаб. снег 10/10 300 м
[]
-8.3 -9.4 92 -18 -18 1011.5 1005.3
06 20.05 СЗ 9 16 км слаб. снег 10/10 1500 м
[]
-8.3 -9.4 92 -18 -18 1011.4 1005.2 -11.6 -7.7 161
09 20.05 СЗ 9 4800 м слаб. снег 10/10 1000 м
[]
-8.7 -9.7 92 -19 -19 1011.3 1005.1
12 20.05 СЗ 9 4000 м слаб. снег 10/10 1000 м
[]
-9.1 -10.3 91 -19 -19 1010.7 1004.5 -9.2 -7.7
15 20.05 СЗ 9 4800 м слаб. снег 10/10 1500 м
[]
-8.6 -10.0 90 -19 -19 1010.8 1004.6
18 20.05 СЗ 9 2800 м слаб. снег 10/10 600 м
[]
-8.1 -9.7 88 -18 -18 1010.9 1004.7 -9.2 -8.0
21 20.05 СЗ 8 14 км слаб. снег 10/10 300 м
[]
-7.5 -9.3 87 -17 -17 1011.7 1005.5
00 21.05 СЗ 7 16 км слаб. снег 10/10 300 м
[]
-7.3 -8.8 89 -16 -16 1012.8 1006.6 -9.2 -7.3
03 21.05 СЗ 6 16 км слаб. снег 10/10 1000 м
[]
-7.7 -8.8 92 -16 -16 1013.6 1007.4
06 21.05 СЗ 5 16 км слаб. снег 10/10 1000 м
[]
-8.1 -8.9 94 -16 -16 1014.5 1008.3 -9.2 -7.3 101
09 21.05 СЗ 6 16 км слаб. снег 10/10 1000 м
[]
-8.2 -9.1 93 -16 -16 1015.9 1009.7
12 21.05 СЗ 5 16 км слаб. снег 10/10 1000 м
[]
-8.0 -9.1 92 -16 -16 1017.0 1010.8 -8.4 -7.3
15 21.05 С 2 16 км 10/10 1000 м
[]
-7.2 -8.4 91 -12 -12 1017.8 1011.6
18 21.05 СЗ 3 16 км 10/10 1000 м
[]
-5.8 -7.6 87 -12 -12 1018.7 1012.5 -8.4 -5.8
21 21.05 СЗ 3 16 км слаб. снег 10/10 300 м
[]
-4.9 -7.3 83 -10 -10 1019.4 1013.2
00 22.05 СЗ 5 16 км слаб. снег 10/10 1000 м
[]
-5.4 -7.8 83 -13 -13 1019.9 1013.7 -8.4 -4.7
03 22.05 СЗ 4 16 км слаб. снег 10/10 600 м
[]
-6.6 -8.1 89 -13 -13 1020.1 1013.9
06 22.05 З 2 16 км слаб. снег 10/10 600 м
[]
-7.5 -8.6 92 -11 -11 1020.6 1014.4 -8.4 -4.7
09 22.05 ЮЗ 2 16 км слаб. снег 10/10 600 м
[]
-8.0 -8.7 95 -13 -13 1021.0 1014.8
12 22.05 З 2 16 км слаб. снег 10/10 600 м
[]
-8.2 -9.0 94 -12 -12 1021.1 1014.8 -8.3 -4.7
15 22.05 ЮЗ 2 16 км слаб. снег 10/10 600 м
[]
-7.5 -8.6 92 -12 -12 1021.0 1014.7
18 22.05 З 2 16 км 10/10 600 м
[]
-6.6 -9.5 80 -11 -11 1020.4 1014.1 -8.3 -6.5
21 22.05 Ю 3 16 км 10/10 600 м
[]
-6.2 -9.0 81 -12 -12 1019.7 1013.5
00 23.05 Ю 5 16 км 10/10 600 м
[]
-6.3 -10.3 73 -13 -13 1018.5 1012.3 -8.3 -5.9
03 23.05 Ю 5 16 км 10/10 600 м
[]
-7.0 -10.1 79 -14 -14 1017.5 1011.3
06 23.05 Ю 4 16 км 10/10 300 м
[]
-7.4 -9.8 83 -14 -14 1016.1 1009.9 -8.3 -5.9
09 23.05 ЮВ 4 16 км 10/10 300 м
[]
-7.6 -9.8 84 -14 -14 1015.3 1009.1
12 23.05 ЮВ 4 16 км 10/10 300 м
[]
-7.2 -9.0 87 -14 -14 1014.0 1007.8 -7.7 -5.9
15 23.05 ЮВ 5 16 км 10/10 300 м
[]
-6.6 -8.1 89 -14 -14 1012.7 1006.5
18 23.05 ЮВ 5 16 км 10/10 300 м
[]
-5.9 -8.2 84 -13 -13 1011.4 1005.2 -7.7 -5.9
21 23.05 ЮВ 4 16 км 10/10 600 м
[]
-5.3 -7.9 82 -11 -11 1011.0 1004.8
00 24.05 В 4 16 км 10/10 600 м
[]
-5.3 -7.4 85 -12 -12 1010.9 1004.7 -7.7 -4.7
03 24.05 СВ 6 16 км 10/10 600 м
[]
-6.4 -8.0 88 -14 -14 1011.2 1005.0
06 24.05 С 5 16 км 10/10 300 м
[]
-7.4 -8.5 92 -15 -15 1012.1 1005.9 -7.7 -4.7
09 24.05 С 6 16 км слаб. снег 10/10 300 м
[]
-8.1 -10.3 84 -16 -16 1013.8 1007.6
12 24.05 С 6 16 км 10/10 300 м
[]
-8.4 -10.0 88 -17 -17 1015.5 1009.3 -8.4 -4.7
15 24.05 С 7 14 км слаб. снег 10/10 300 м
[]
-9.0 -10.8 87 -18 -18 1017.1 1010.9
18 24.05 С 7 16 км 5/5 300 м
[]
-8.6 -10.5 86 -17 -15 1018.8 1012.5 -9.5 -7.3
21 24.05 С 8 16 км 10/10 300 м
[]
-7.6 -9.5 86 -17 -17 1020.5 1014.2

 

Местоположение метеостанции Grand Etang (Канада): широта 46.55 долгота -61.05 высота над уровнем моря 13 м.

В архиве по умолчанию представлена погода в Grand Etang за последнюю неделю. Архивные данные за месяц целиком и за предыдущие месяцы, начиная с января 2011 года, Вы можете получить, выбрав интересующий диапазон дат из раскрывающегося списка и нажав кнопку "Ввод!".


*Определитесь, кто Вы:
робот инопланетянин человек

Внимание! Время в таблицах - всемирное. Для получения местного времени необходимо прибавить поправку, которая в Grand Etang равна -4 ч.

Смотрите также архив погоды в соседних городах и на ближайших метеорологических станциях:

Погода в Cheticamp (Канада) (13 км)
Погода в North Mountain (Канада) (42 км)
Погода в Ingonish Beach (Канада) (51 км)
Погода в East Point (Канада) (71 км)
Погода в Sydney (Канада) (88 км)
Погода в Sydney Rcs (Канада) (88 км)
Погода в St Paul Island (Канада) (103 км)
Погода в Port Hawkesbury (Канада) (103 км)
Погода в Lles de la Madelein (Канада) (111 км)
Погода в Lles de la Madelein (Канада) (111 км)

Пояснения к столбцам:

Ветер - указаны скорость ветра в м/с - средняя за 10 мин, порывы в срок и между сроками (в фигурных скобках) и направление, откуда дует ветер: С - северный, СВ - северо-восточный, В - восточный, ЮВ - юго-восточный, Ю - южный, ЮЗ - юго-западный, З - западный, СЗ - северо-западный.
Видимость - горизонтальная дальность видимости в метрах или километрах. При видимости от 1 до 10 км при отсутствии осадков обычно наблюдается дымка, при ухудшении видимости до 1 км и менее - туман. В сухую погоду видимость может ухудшаться дымом, пылью или мглою.
Явления - указаны атмосферные явления, наблюдавшиеся в срок или в последний час перед сроком; фигурными скобками обозначены явления, наблюдавшиеся между сроками (за 1-3 часа до срока); квадратными скобками обозначены град или гололедные отложения с указанием их диаметра в мм.
Облачность - указаны через наклонную черту общая и нижняя облачность в баллах и высота нижней границы облаков в метрах; квадратными скобками обозначены формы облаков: Ci - перистые, Cs - перисто-слоистые, Cc - перисто-кучевые, Ac - высококучевые, As - высокослоистые, Sc - слоисто-кучевые, Ns - слоисто-дождевые, Cu - кучевые, Cb - кучево-дождевые. Подробнее классификацию облаков см. в Атласе облаков (PDF).
T - Температура воздуха - температура, измеренная на высоте 2 м над землей.
Td - Температура точки росы - температура, при понижении до которой содержащийся в воздухе водяной пар достигнет насыщения.
f - Относительная влажность воздуха - влажноcть воздуха, измеренная на высоте 2 м над землей.
Te - Эффективная температура - температура, которую ощущает одетый по сезону человек в тени. Характеристика душности погоды. При расчете учитывается влияние влажности воздуха и скорости ветра на теплоощущения человека.
Tes - Эффективная температура на солнце - температура, которую ощущает человек, с поправкой на солнечный нагрев. Характеристика знойности погоды. Зависит от высоты солнца над горизонтом, облачности и скорости ветра. Ночью, в пасмурную погоду, а также при ветре 12 м/с и более поправка равна нулю.
P - Атмосферное давление - приведенное к уровню моря атмосферное давление.
Po - Атмосферное давление - измеренное на уровне метеостанции атмосферное давление.
Tmin - Минимальная температура - минимум температуры воздуха на высоте 2 м над землей.
Tmax - Максимальная температура - максимум температуры воздуха на высоте 2 м над землей.
R - Количество осадков - Количество выпавших осадков за период времени, мм. При наведении курсора мыши на число - период времени, за который выпало указанное количество осадков.
R24 - Количество осадков - Количество выпавших осадков за 24 часа, мм.
S - Снежный покров - Высота снежного покрова, см. При наведении курсора мыши на число - состояние снежного покрова и степень покрытия местности в баллах.